Powrót do katalogu

STARLINK-4284

AktywnyŁącznośćVLEO
NORAD 53023·PAYLOAD·🇺🇸 United States

Wystrzelony Jul 7, 2022 z Cape Canaveral Space Force Station

Loading…

Następne Przeloty (najbliższe 24 godziny)

TLE

ŚwieżeSource: CelesTrak SupGP

Epoka: Sep 15, 2026, 02:22 UTC

1 53023C 22076AP  26258.09909722  .00012157  00000+0  34778-3 0  2586
2 53023  53.1585 306.6494 0001215  95.5259 340.2510 15.35395092    16

Śledź STARLINK-4284 w czasie rzeczywistym z AllMySat

Download on the App Store